Weather History for Branson, MO

Change the Weather History Date:

Thursday, April 17, 2014

  Actual Average (KHRO) Record (KHRO)
Temperature  
Mean Temperature 52 °F 58 °F  
Max Temperature 66 °F 70 °F 91 °F (1937)
Min Temperature 37 °F 47 °F 21 °F (1951)
Degree Days  
Heating Degree Days 14 8  
Month to date heating degree days 164  
Since 1 July heating degree days 3844  
Cooling Degree Days 0 1  
Month to date cooling degree days 17  
Year to date cooling degree days 23  
Growing Degree Days 2 (Base 50)    
Moisture  
Dew Point 34 °F    
Average Humidity 56    
Maximum Humidity 81    
Minimum Humidity 28    
Precipitation  
Precipitation 0.00 in 0.15 in 1.79 in (1901)
Month to date precipitation 2.23  
Year to date precipitation 11.22  
Snow  
Snow 0.00 in 0.00 in - ()
Month to date snowfall 0.3  
Since 1 July snowfall 11.5  
Snow Depth -    
Sea Level Pressure  
Sea Level Pressure 30.19 in    
Wind  
Wind Speed 6 mph (East)    
Max Wind Speed 10 mph    
Max Gust Speed -    
Visibility 10 miles    
Events      
T = Trace of Precipitation, MM = Missing Value Source: NWS Daily Summary

Daily Weather History Graph

Daily Weather History Graph

Search for Another Location

Airport:

Trip Planner

Search our weather history database for the weather conditions in past years. The results will help you decide how hot, cold, wet, or windy it might be!

Date:

Astronomy

Apr. 17, 2014 Rise Set
Actual Time 6:36 AM CDT 7:48 PM CDT
Civil Twilight 6:09 AM CDT 8:15 PM CDT
Nautical Twilight 5:37 AM CDT 8:47 PM CDT
Astronomical Twilight 5:04 AM CDT 9:20 PM CDT
Moon 10:31 PM CDT (4/17) 8:11 AM CDT (4/17)
Length of Visible Light 14h 05m
Length of Day
13h 12m
Waning Gibbous, 93% of the Moon is Illuminated
Apr 17
Waning Gibbous
Apr 22
Last Quarter
Apr 29
New
May 6
First Quarter
May 14
Full

Hourly Weather History & Observations

Time (CDT) Temp. Windchill Dew Point Humidity Pressure Visibility Wind Dir Wind Speed Gust Speed Precip Events Conditions
12:15 AM 44.6 °F 41.4 °F 30.2 °F 57% 30.13 in 10.0 mi SSE 5.8 mph - N/A   Overcast
12:35 AM 44.6 °F 40.2 °F 30.2 °F 57% 30.13 in 10.0 mi SE 8.1 mph - N/A   Overcast
12:55 AM 44.6 °F 39.7 °F 30.2 °F 57% 30.13 in 10.0 mi SSE 9.2 mph - N/A   Scattered Clouds
1:15 AM 44.6 °F 40.2 °F 30.2 °F 57% 30.13 in 10.0 mi SSE 8.1 mph - N/A   Clear
1:35 AM 44.6 °F 40.7 °F 28.4 °F 53% 30.13 in 10.0 mi SSE 6.9 mph - N/A   Clear
1:55 AM 42.8 °F 39.3 °F 30.2 °F 61% 30.13 in 10.0 mi SSE 5.8 mph - N/A   Scattered Clouds
2:15 AM 44.6 °F 40.7 °F 30.2 °F 57% 30.13 in 10.0 mi SSE 6.9 mph - N/A   Scattered Clouds
2:35 AM 42.8 °F 40.1 °F 30.2 °F 61% 30.13 in 10.0 mi SSE 4.6 mph - N/A   Scattered Clouds
2:55 AM 41.0 °F 38.0 °F 30.2 °F 65% 30.13 in 10.0 mi SE 4.6 mph - N/A   Partly Cloudy
3:15 AM 41.0 °F 38.0 °F 30.2 °F 65% 30.14 in 10.0 mi SE 4.6 mph - N/A   Partly Cloudy
3:35 AM 41.0 °F 38.0 °F 32.0 °F 70% 30.14 in 10.0 mi SE 4.6 mph - N/A   Partly Cloudy
3:55 AM 39.2 °F 35.0 °F 32.0 °F 75% 30.15 in 10.0 mi SE 5.8 mph - N/A   Partly Cloudy
4:15 AM 39.2 °F 35.9 °F 32.0 °F 75% 30.15 in 10.0 mi SSE 4.6 mph - N/A   Clear
4:35 AM 39.2 °F - 32.0 °F 75% 30.16 in 10.0 mi Calm Calm - N/A   Mostly Cloudy
4:55 AM 39.2 °F 37.0 °F 32.0 °F 75% 30.16 in 10.0 mi SE 3.5 mph - N/A   Mostly Cloudy
5:15 AM 37.4 °F - 32.0 °F 81% 30.17 in 10.0 mi Calm Calm - N/A   Mostly Cloudy
5:35 AM 39.2 °F - 32.0 °F 75% 30.17 in 10.0 mi Calm Calm - N/A   Mostly Cloudy
5:55 AM 39.2 °F - 32.0 °F 75% 30.17 in 10.0 mi Calm Calm - N/A   Scattered Clouds
6:15 AM 39.2 °F - 32.0 °F 75% 30.18 in 10.0 mi Calm Calm - N/A   Partly Cloudy
6:35 AM 39.2 °F 37.0 °F 32.0 °F 75% 30.19 in 10.0 mi SE 3.5 mph - N/A   Clear
6:45 AM 39.2 °F 35.9 °F 32.0 °F 75% 30.19 in 10.0 mi SE 4.6 mph - N/A   Partly Cloudy
7:45 AM 44.6 °F 42.2 °F 32.0 °F 61% 30.21 in 10.0 mi SSE 4.6 mph - N/A   Scattered Clouds
8:45 AM 48.2 °F - 32.0 °F 54% 30.23 in 10.0 mi SSE 4.6 mph - N/A   Scattered Clouds
9:45 AM 53.6 °F - 33.8 °F 47% 30.25 in 10.0 mi South 4.6 mph - N/A   Scattered Clouds
10:45 AM 59.0 °F - 32.0 °F 36% 30.25 in 10.0 mi SSW 4.6 mph - N/A   Scattered Clouds
11:45 AM 59.0 °F - 32.0 °F 36% 30.25 in 10.0 mi East 4.6 mph - N/A   Mostly Cloudy
12:45 PM 60.8 °F - 33.8 °F 36% 30.23 in 10.0 mi South 4.6 mph - N/A   Scattered Clouds
1:50 PM 62.6 °F - 33.8 °F 34% 30.21 in 10.0 mi NNW 10.4 mph - N/A   Mostly Cloudy
2:48 PM 64.4 °F - 33.8 °F 32% 30.21 in 10.0 mi NE 4.6 mph - N/A   Mostly Cloudy
3:47 PM 66.2 °F - 33.8 °F 30% 30.19 in 10.0 mi North 9.2 mph - N/A   Mostly Cloudy
4:48 PM 66.2 °F - 32.0 °F 28% 30.19 in 10.0 mi NNW 6.9 mph - N/A   Mostly Cloudy
5:48 PM 66.2 °F - 32.0 °F 28% 30.19 in 10.0 mi NNW 6.9 mph - N/A   Mostly Cloudy
6:53 PM 64.4 °F - 32.0 °F 30% 30.19 in 10.0 mi North 4.6 mph - N/A   Mostly Cloudy
7:52 PM 59.0 °F - 37.4 °F 45% 30.20 in 10.0 mi North 9.2 mph - N/A   Mostly Cloudy
8:46 PM 57.2 °F - 39.2 °F 51% 30.21 in 10.0 mi NNW 8.1 mph - N/A   Mostly Cloudy
9:15 PM 57.2 °F - 39.2 °F 51% 30.23 in 10.0 mi North 8.1 mph - N/A   Scattered Clouds
9:35 PM 57.2 °F - 39.2 °F 51% 30.24 in 10.0 mi North 6.9 mph - N/A   Mostly Cloudy
9:55 PM 55.4 °F - 39.2 °F 54% 30.24 in 10.0 mi NNE 3.5 mph - N/A   Overcast
10:15 PM 55.4 °F - 39.2 °F 54% 30.23 in 10.0 mi North 4.6 mph - N/A   Overcast
10:35 PM 53.6 °F - 39.2 °F 58% 30.23 in 10.0 mi North 5.8 mph - N/A   Mostly Cloudy
10:55 PM 53.6 °F - 39.2 °F 58% 30.23 in 10.0 mi North 5.8 mph - N/A   Mostly Cloudy
11:15 PM 53.6 °F - 39.2 °F 58% 30.22 in 10.0 mi North 5.8 mph - N/A   Overcast
11:35 PM 51.8 °F - 39.2 °F 62% 30.23 in 10.0 mi North 5.8 mph - N/A   Overcast
11:55 PM 50.0 °F - 39.2 °F 66% 30.23 in 10.0 mi NNW 6.9 mph - N/A   Mostly Cloudy